User: anonymous   Login
Location: La Brionne
(46.1728°N, 1.7849°E)
Time: 16:36:31
(UTC+00:00)
Language:

Cosmos 1908 - Orbit

View from above orbital plane
View from above orbital plane
View from above satellite
View from above satellite

Ground track
Ground track

The orbit data is extracted from the following two-line orbital elements,

1 18748U 88001A   21258.89813722  .00000528  00000-0  26177-4 0  9995
2 18748  82.4728 326.9247 0011708 285.6030  74.3910 15.15530056840383
Epoch (UTC): 15 September 2021 21:33:19
Eccentricity: 0.0011708
inclination: 82.4728°
perigee height: 511 km
apogee height: 527 km
right ascension of ascending node: 326.9247°
argument of perigee: 285.6030°
revolutions per day: 15.15530056
mean anomaly at epoch: 74.3910°
orbit number at epoch: 84038

The dashed part of the orbit path shows where the satellite is in the earth's shadow,  

DLR